Simultaneous Nadir Overpasses (SNOs) Predictions

Prediction of SNOs between METOP-A and TERRA Satellite Orbit:

Table of predicted SNOs for the next 14.0 days since TLE Epoch: 10/9/2021
Index Date (METOP-A) Time (METOP-A) Lat,Lon (METOP-A) SZA (METOP-A ) Date (TERRA) Time (TERRA) Lat,Lon (TERRA) SZA (TERRA ) Distance(km) Time Diff (sec)
1 10/09/2021 06:10:31 -81.26, -48.15 89.58 10/09/2021 06:11:35 -81.26, -48.23 89.57 1.43 64
2 10/09/2021 07:01:11 81.25, 119.49 90.46 10/09/2021 07:01:01 81.27, 119.50 90.47 1.75 10
3 10/12/2021 01:44:50 -81.27, 18.14 88.52 10/12/2021 01:45:46 -81.25, 18.03 88.52 2.50 56
4 10/12/2021 02:35:30 81.25,-174.24 91.52 10/12/2021 02:35:12 81.25,-174.26 91.51 0.34 18
5 10/14/2021 21:19:09 -81.25, 84.77 87.44 10/14/2021 21:19:57 -81.26, 84.61 87.44 2.84 48
6 10/14/2021 22:09:49 81.24,-107.62 92.60 10/14/2021 22:09:23 81.26,-107.71 92.59 2.60 26
7 10/17/2021 16:53:29 -81.26, 151.01 86.42 10/17/2021 16:54:08 -81.26, 151.13 86.38 2.15 39
8 10/17/2021 17:44:09 81.25, -41.40 93.62 10/17/2021 17:43:35 81.24, -41.59 93.58 3.27 34
9 10/20/2021 12:27:47 -81.25,-142.40 85.38 10/20/2021 12:28:18 -81.26,-142.40 85.36 1.94 31



Historial Predications of SNOs between METOP-A and TERRA
